EHI
0 1 5 10 9 4 1 0 0 0 0 0 0 2 8 15 16 14 21 46 71 70 58 49 37 18 3 0 0 0 0 0 0 0 0 0 0 0 0 0 0 0 0 0 0 0 0 0 0
0 1 4 6 5 2 0 0 0 0 0 0 0 2 9 14 15 17 31 56 69 62 51 48 41 21 6 1 0 0 1 1 0 0 0 0 0 0 0 0 0 0 0 0 0 0 0 0 0
0 0 1 1 1 0 0 0 0 0 0 0 1 4 10 13 17 26 46 65 65 52 47 52 45 26 11 4 1 1 2 1 0 0 0 0 0 0 0 0 0 0 0 0 0 0 0 0 0
0 0 0 0 0 0 0 0 0 0 0 1 6 13 16 15 21 35 51 65 64 52 49 51 44 28 13 6 1 1 1 1 0 0 0 0 0 0 0 0 0 0 0 0 0 0 0 0 0
0 0 0 0 0 0 0 0 0 0 1 3 14 26 26 20 24 33 45 60 65 58 50 44 39 26 13 5 1 1 0 0 0 0 0 0 0 0 0 0 0 0 0 0 0 0 0 0 0
0 0 0 0 0 0 1 0 1 1 1 4 17 33 33 26 26 28 35 52 66 65 51 39 31 22 11 4 1 0 0 0 0 0 0 0 0 0 0 0 0 0 0 0 0 0 0 0 0
0 0 0 0 0 0 0 0 1 2 1 3 14 31 37 34 31 27 31 48 67 68 53 34 23 15 8 3 1 0 0 0 0 0 0 0 0 0 0 0 0 0 0 0 0 0 0 0 0
0 0 0 0 0 0 0 0 0 1 1 3 13 32 48 50 43 36 39 54 68 67 50 32 21 13 6 1 1 0 0 0 0 0 0 1 0 0 0 0 0 0 0 0 0 0 0 0 0
0 0 0 0 0 0 0 0 0 0 1 6 20 44 62 63 56 51 54 63 72 66 50 34 26 16 6 1 0 0 0 0 0 0 0 0 0 0 0 0 0 0 0 0 0 0 0 0 0
0 0 0 0 0 0 0 0 0 0 3 13 35 58 68 66 65 64 66 73 77 71 56 43 32 19 9 6 4 2 0 0 0 0 0 0 0 0 0 0 0 0 0 0 0 0 0 0 0
0 0 0 0 0 0 0 0 0 1 6 18 41 62 68 70 73 74 75 79 80 73 64 54 41 28 22 18 11 4 1 0 0 0 0 1 1 1 1 1 0 0 0 0 0 0 0 0 0
0 0 0 0 0 0 0 0 1 2 6 16 34 55 69 76 79 77 78 81 81 76 71 64 55 47 43 32 17 7 4 3 3 3 2 2 2 3 3 2 1 0 1 1 0 0 0 0 0
0 0 0 0 0 0 0 1 2 3 5 12 28 49 68 80 82 80 79 81 82 79 77 74 67 63 58 43 24 14 12 10 11 9 7 5 6 8 8 4 2 2 2 2 1 0 0 1 1
0 0 0 0 0 0 0 1 2 3 5 12 28 49 68 80 85 83 80 80 81 80 81 81 75 70 64 48 32 25 21 21 20 18 13 9 11 14 11 5 3 3 4 3 2 1 0 1 1
0 0 0 0 0 0 1 2 3 4 7 15 29 49 68 81 85 83 81 80 79 80 82 80 74 68 62 51 39 33 29 26 26 25 21 15 15 16 11 5 4 5 5 4 2 1 0 0 1
0 0 0 0 0 0 1 2 3 4 8 18 30 46 65 78 83 81 79 78 79 81 81 75 66 63 60 52 44 40 38 34 30 28 24 19 18 14 8 6 7 6 4 3 1 0 0 0 0
0 0 0 0 0 0 1 3 4 4 9 20 30 43 60 75 81 79 76 77 79 80 77 70 64 62 59 51 45 48 50 44 35 30 26 22 19 13 9 11 11 6 3 3 1 1 1 0 0
0 0 0 0 0 0 0 2 4 5 9 19 30 42 58 72 78 77 76 75 74 73 71 68 66 64 59 49 45 50 52 47 39 34 30 25 19 13 11 14 12 5 2 2 2 3 3 1 0
0 0 0 0 0 0 0 1 4 6 10 19 31 43 57 70 76 76 73 69 67 67 67 65 64 62 58 50 45 46 45 42 39 37 33 27 19 13 10 12 10 5 2 1 1 2 2 0 0
0 0 0 0 0 0 0 2 5 8 11 20 31 43 57 69 74 74 70 65 62 61 62 60 59 57 55 51 45 42 41 39 37 37 33 25 18 11 9 10 8 5 3 2 1 1 0 0 0
0 0 0 0 0 0 0 3 8 10 13 21 30 40 52 64 71 70 66 62 60 58 56 55 54 54 54 51 44 39 38 37 36 36 31 24 17 12 10 9 7 4 3 2 2 1 0 0 0
0 0 0 0 0 0 0 4 10 13 16 23 30 37 45 56 64 66 63 61 59 56 53 51 51 53 53 50 44 38 34 33 35 34 29 24 19 15 12 10 7 4 2 2 2 2 1 0 0
0 0 0 0 0 0 0 2 8 13 18 25 32 38 42 48 55 60 62 61 57 53 51 50 50 50 49 47 44 38 33 32 34 34 30 25 20 16 13 12 10 6 3 2 4 5 2 0 0
0 0 0 0 0 0 0 1 4 9 16 24 33 40 42 43 49 56 58 58 55 51 50 49 48 47 45 43 41 38 34 35 36 34 31 25 19 15 14 13 13 9 6 7 8 7 3 1 1
0 0 0 0 0 0 0 0 1 5 11 19 30 40 42 40 46 53 53 51 50 49 49 48 47 44 42 41 38 36 35 35 34 31 29 25 19 16 16 17 16 13 9 9 9 5 1 0 0
0 0 0 0 0 0 0 0 2 4 6 13 24 34 37 37 41 47 47 45 46 47 47 46 45 42 42 41 39 37 36 34 30 29 27 24 20 19 21 21 18 15 10 9 8 5 1 1 0
0 0 0 0 0 0 0 1 4 7 7 10 19 27 30 31 35 40 41 41 44 45 43 42 41 39 39 37 36 36 35 31 29 30 28 24 22 21 22 22 17 15 11 10 10 6 3 2 1
0 0 0 0 0 0 0 0 4 9 9 10 15 22 26 26 29 34 38 39 42 42 40 38 36 34 32 29 28 28 29 29 31 31 29 26 24 24 24 21 18 15 13 12 10 6 3 3 3
0 0 0 0 0 0 0 0 2 6 7 8 12 18 25 27 26 30 37 40 40 38 36 34 34 31 25 20 19 20 22 25 28 29 30 30 28 28 27 23 20 17 13 10 8 4 3 3 3
0 0 0 0 0 0 0 0 1 3 5 6 9 16 25 29 28 30 37 40 39 35 32 31 33 30 22 17 16 17 19 22 25 27 30 32 29 29 28 24 21 17 11 8 7 3 2 3 2
Wind_Speed
9 12 11 9 7 7 9 2 6 6 6 8 8 9 13 13 10 10 12 20 25 22 20 18 17 17 16 16 15 15 14 14 14 14 13 13 13 13 14 14 14 14 14 14 14 14 14 13 13
11 14 11 8 8 7 5 1 8 6 8 7 7 9 13 15 14 15 16 22 25 22 19 18 19 17 16 16 15 15 14 14 13 13 13 13 13 13 13 13 14 14 14 14 14 14 13 13 12
13 17 9 8 12 8 2 3 7 5 7 5 5 9 11 12 13 14 18 24 23 21 19 19 20 18 17 15 15 14 14 14 13 13 13 13 13 13 13 13 14 14 14 14 14 13 13 12 11
9 10 8 10 13 7 1 4 5 6 6 4 5 10 12 10 10 16 20 23 23 21 20 19 19 18 17 16 15 14 14 13 13 13 12 13 13 13 13 14 14 13 13 13 13 13 12 11 9
11 8 11 13 14 5 0 3 5 5 5 5 8 12 11 9 14 18 19 22 22 21 20 19 19 18 17 16 15 14 14 13 13 12 12 13 13 13 13 13 13 13 13 13 12 12 11 9 7
9 9 11 11 12 4 2 2 2 4 4 4 8 13 9 9 14 16 18 19 21 22 20 18 19 18 17 15 15 14 14 14 13 12 13 12 12 12 13 13 13 12 12 12 11 11 9 8 6
11 12 14 14 10 5 3 3 2 3 4 3 5 11 10 12 14 15 15 17 19 22 20 17 16 15 16 15 14 14 13 13 13 12 13 12 12 12 12 12 12 12 11 11 10 9 8 7 5
12 12 16 15 10 4 4 3 1 2 4 5 3 9 11 15 16 16 14 16 17 19 18 17 15 14 13 13 14 14 13 13 13 12 12 12 12 12 12 12 11 11 10 10 9 8 7 6 4
15 13 14 14 7 1 3 3 4 3 5 5 5 13 17 19 19 16 14 15 15 16 15 16 15 14 13 13 13 13 13 13 12 11 12 11 8 9 9 12 11 10 9 9 8 7 6 5 4
13 12 15 12 6 2 2 4 3 5 6 7 10 16 20 19 18 17 16 17 16 15 15 14 15 14 13 11 10 8 9 9 7 7 8 5 4 5 9 11 10 9 8 8 7 6 6 5 4
15 16 15 12 7 5 4 4 5 4 3 6 9 14 17 19 17 16 15 15 15 15 14 14 13 11 11 9 8 6 5 6 6 7 6 4 4 6 7 5 6 5 6 5 6 6 4 3 1
17 16 15 12 8 6 6 5 5 4 4 9 11 12 14 18 17 16 13 13 14 15 14 14 13 9 9 9 7 7 6 5 5 6 6 4 2 3 5 3 3 3 2 2 3 2 1 1 2
16 16 14 12 9 7 8 8 6 4 7 10 15 17 17 16 15 14 14 13 13 12 13 12 11 10 8 7 5 7 7 6 6 5 4 4 3 3 4 3 2 2 2 2 1 1 2 1 1
14 14 14 13 11 10 10 9 7 5 7 10 14 15 16 15 15 14 14 13 13 13 13 12 12 10 8 6 4 4 6 5 6 4 4 4 4 3 3 3 2 1 2 1 1 2 1 1 1
14 14 14 14 13 11 10 10 7 4 5 7 10 13 13 13 13 14 13 13 14 13 12 12 11 10 9 8 6 5 5 6 5 5 5 3 5 4 3 3 2 2 2 2 1 2 1 2 2
14 15 15 14 14 12 12 10 7 9 10 9 8 11 12 11 12 12 13 11 11 11 12 12 12 12 9 7 5 4 5 5 5 5 5 4 5 4 3 3 2 3 2 2 1 1 1 1 1
16 16 16 14 14 12 12 10 9 11 11 10 9 10 12 12 12 12 13 13 12 11 11 11 10 12 10 8 5 4 4 5 5 5 5 4 5 4 3 2 3 2 2 2 2 2 1 1 0
14 14 13 13 11 12 11 9 9 11 11 11 11 11 11 13 13 13 13 12 11 11 11 11 10 11 10 7 5 3 4 4 4 5 5 5 4 4 2 4 3 2 2 2 2 2 1 0 1
17 14 11 11 9 10 10 10 8 10 11 10 10 10 12 12 14 13 13 13 12 11 12 12 11 11 9 7 7 6 5 4 4 5 6 5 4 4 2 3 3 1 2 2 2 2 2 2 1
17 16 14 9 6 7 8 10 7 6 7 8 9 10 11 12 13 14 13 12 12 12 12 12 12 12 10 7 6 5 6 4 4 4 6 6 5 4 4 3 3 3 2 2 2 1 1 2 2
17 15 12 9 8 9 9 10 8 7 9 9 10 10 12 13 15 15 15 13 13 13 13 12 12 12 11 9 6 6 4 4 4 5 5 5 5 5 3 4 2 3 3 3 2 2 2 1 1
14 13 12 11 10 8 9 9 7 8 9 10 10 11 12 13 14 15 15 14 13 13 12 11 12 11 11 10 9 10 8 6 6 5 5 5 5 5 4 4 3 2 2 4 3 3 1 1 1
13 11 12 12 11 11 9 9 6 9 10 11 11 12 12 13 14 15 16 15 14 14 12 11 11 11 11 10 10 9 7 6 5 6 7 6 5 5 5 5 4 2 2 3 1 3 0 1 1
13 12 11 10 10 12 10 10 7 8 11 10 11 11 11 12 13 14 14 14 14 13 13 13 12 11 11 10 9 9 9 8 8 8 8 6 5 5 6 6 4 3 2 3 2 2 1 1 2
14 11 8 8 8 9 9 10 6 8 8 9 10 12 12 12 13 13 13 14 14 14 14 13 13 12 12 11 10 10 9 9 9 8 8 7 6 5 6 6 5 3 3 3 3 2 1 1 1
15 14 10 7 7 6 7 8 3 6 8 9 10 11 12 12 13 14 14 14 14 15 14 14 13 13 12 12 10 9 9 7 6 7 7 7 5 5 7 6 5 4 4 4 3 2 2 2 0
14 14 12 10 8 6 6 4 1 4 8 9 11 12 12 12 13 14 14 14 14 14 14 14 14 13 13 12 11 10 9 8 8 8 6 5 5 7 8 7 6 5 4 3 4 2 2 3 2
15 11 8 9 8 8 6 6 5 7 8 8 9 11 11 11 11 13 12 13 12 12 12 13 13 13 13 12 12 11 10 8 7 7 7 6 6 7 8 7 6 6 5 4 4 3 3 3 2
14 14 11 8 8 8 5 2 1 3 5 6 8 11 12 11 10 12 12 12 12 12 12 12 13 13 13 12 11 11 11 9 8 6 7 6 6 8 8 7 7 6 6 5 4 3 5 4 3
12 12 10 8 7 7 5 4 2 1 3 4 6 9 11 11 10 11 12 12 11 12 11 12 12 13 13 12 11 11 10 10 10 8 7 7 7 7 8 7 7 7 6 5 5 4 5 5 4
Wind_Direction
219 237 235 247 247 249 270 306 75 72 73 63 53 63 70 66 77 108 131 126 120 124 129 129 127 127 125 124 123 121 118 115 112 109 104 101 100 98 97 97 97 97 96 95 94 93 93 93 93
241 242 241 249 255 262 277 0 73 68 80 89 85 77 79 78 89 115 128 122 123 128 134 130 129 128 127 126 126 124 121 119 115 112 108 105 104 101 101 99 99 99 98 96 95 94 94 94 96
256 258 259 251 252 259 255 75 95 104 96 96 95 78 71 83 96 116 126 127 127 131 129 130 133 130 129 128 127 125 123 120 117 115 111 107 105 103 103 102 101 100 98 97 96 96 95 95 97
245 240 244 255 263 267 277 94 109 115 115 115 102 92 80 74 102 121 132 131 129 130 128 133 134 132 132 131 130 128 126 122 120 117 113 110 108 106 104 103 102 101 99 98 98 98 98 97 97
241 254 247 261 269 265 269 108 134 137 134 128 109 95 81 88 111 129 139 134 134 130 130 136 136 135 135 134 133 131 129 126 123 120 116 113 112 110 107 104 103 102 101 100 100 100 101 100 96
239 246 255 262 274 253 152 117 143 143 137 128 124 113 111 127 128 140 143 138 135 130 131 135 138 137 137 137 136 134 132 130 128 124 121 116 115 113 110 108 107 105 104 103 103 103 103 104 101
252 263 270 273 269 259 139 146 155 167 149 139 122 113 129 139 135 143 140 134 130 131 133 140 141 141 140 140 140 137 135 133 130 127 126 122 121 119 115 113 111 111 109 108 107 108 108 110 111
250 272 280 277 267 262 129 135 160 171 130 125 130 118 138 139 141 140 137 128 130 131 138 144 145 145 147 144 144 141 139 137 135 134 135 131 129 127 127 122 117 117 115 114 115 117 120 126 135
244 259 269 274 284 257 133 178 178 158 142 126 86 104 130 142 143 144 139 132 134 135 142 145 146 151 153 149 146 146 144 143 143 145 146 150 150 141 144 122 127 127 126 127 130 137 145 155 175
234 249 259 276 308 329 190 206 191 185 169 137 106 110 132 147 149 153 152 147 143 142 147 148 151 157 156 149 146 154 153 152 162 151 159 176 149 133 124 131 136 138 141 145 156 167 180 200 188
233 245 266 286 297 299 271 231 211 215 175 136 134 139 149 152 154 159 159 152 147 149 154 150 154 159 153 141 155 158 148 157 163 154 164 169 139 132 129 141 144 155 166 171 167 192 212 200 163
238 251 264 278 291 285 277 274 242 209 148 136 141 152 165 161 162 164 161 153 150 157 156 150 154 153 146 147 157 154 150 163 159 160 171 151 147 137 135 135 154 170 169 173 183 197 153 115 140
236 250 258 267 272 270 268 263 258 223 138 135 147 163 169 164 163 163 160 157 154 156 152 149 152 150 149 144 163 158 150 165 149 151 154 148 143 125 122 129 159 166 150 171 173 112 96 74 53
251 250 257 257 253 246 248 251 246 234 162 155 154 159 163 164 164 161 162 161 161 163 157 151 155 148 144 146 165 144 148 144 137 143 142 144 123 115 118 133 149 130 134 120 128 124 131 132 104
260 260 256 253 246 239 243 246 239 211 200 176 161 158 158 160 161 163 164 162 165 164 155 152 153 150 150 156 169 152 144 144 139 137 139 148 130 134 147 148 167 138 120 124 122 129 159 184 163
248 249 251 246 235 224 229 238 210 190 198 189 174 162 158 155 161 161 160 161 160 159 156 158 161 156 155 155 163 151 148 139 137 140 143 149 132 149 163 151 148 135 146 145 127 194 172 134 134
244 240 244 240 223 216 223 235 204 184 194 180 176 171 163 157 160 158 163 162 159 158 157 158 155 156 157 155 156 153 136 133 139 142 141 152 149 158 162 130 115 161 150 153 177 135 100 123 155
238 237 243 244 215 212 225 231 195 187 195 183 181 174 164 161 164 163 164 162 160 157 156 158 156 156 156 153 152 149 140 139 142 136 141 151 153 157 164 135 142 188 140 113 84 97 99 170 235
257 264 255 244 218 210 226 237 219 192 195 188 179 171 166 164 161 160 163 162 161 159 159 163 164 159 157 158 162 160 157 159 149 142 145 151 154 155 176 125 151 153 113 124 143 137 176 211 201
249 260 261 251 220 214 237 246 226 202 209 190 177 174 165 160 159 160 163 163 165 166 167 168 167 163 166 164 161 158 156 160 148 139 142 153 158 164 174 138 165 127 122 136 134 116 251 218 166
244 250 258 260 251 237 244 247 218 203 216 196 182 172 168 166 165 166 168 168 170 170 171 172 168 167 168 161 158 153 143 148 150 147 155 165 168 168 146 144 143 142 165 152 177 184 218 260 168
242 247 257 253 249 245 235 250 213 196 208 203 184 175 170 166 165 168 170 170 172 171 170 168 169 168 167 166 166 165 169 170 163 161 159 170 171 161 155 152 141 166 149 143 199 181 210 232 242
240 245 250 254 253 258 250 254 226 191 203 202 186 178 170 168 167 168 171 171 171 170 169 169 170 170 169 173 172 172 172 167 157 158 159 168 167 166 163 156 150 164 148 141 132 112 353 307 300
234 240 250 253 255 251 250 257 233 195 196 189 178 171 165 167 162 163 166 166 169 170 170 170 171 171 172 177 175 179 175 168 164 164 164 170 167 175 170 158 150 168 151 139 133 125 168 352 3
223 227 231 236 239 252 249 248 236 170 172 174 173 166 164 162 155 158 162 167 170 172 173 172 172 174 177 179 178 183 180 173 171 169 174 174 172 173 169 157 157 165 143 142 138 146 150 143 23
218 224 227 236 237 247 252 247 227 155 151 153 160 160 156 160 160 163 167 170 173 174 173 173 174 176 179 181 182 182 180 178 176 179 179 180 176 165 153 148 161 155 157 162 145 164 169 135 132
219 226 231 239 252 254 239 237 159 172 143 145 156 157 161 166 165 166 169 172 175 175 176 176 177 180 184 184 181 180 180 185 184 179 182 180 167 154 153 158 162 160 163 150 148 182 155 134 187
233 224 229 243 255 259 244 220 205 178 156 153 157 153 152 159 166 167 167 169 173 174 176 177 179 183 185 185 183 181 182 187 181 173 182 177 168 149 154 160 161 161 160 159 170 174 147 151 176
218 226 230 243 256 266 268 250 142 183 153 158 159 154 155 160 173 167 165 167 170 172 176 178 180 181 183 186 186 179 179 180 178 177 177 170 163 154 158 163 164 163 166 169 178 184 157 174 191
225 229 231 241 252 267 270 259 276 266 152 156 157 151 156 161 170 167 165 168 171 174 178 180 179 180 182 182 182 180 176 176 179 180 177 170 164 161 162 165 166 172 173 170 179 202 171 176 188